{"data":{"norad_id":65690,"epoch":"2026-05-24T23:48:59.817600Z","epoch_age_seconds":69513,"freshness":"FRESH","line1":"1 65690U 25212Q   26144.99235900  .00020154  00000+0  69047-3 0  9992","line2":"2 65690  53.1598 351.4130 0000289  92.4291 267.6743 15.30211970 38872","mean_motion":15.3021197,"eccentricity":2.89e-5,"inclination_deg":53.1598,"raan_deg":351.413,"arg_perigee_deg":92.4291,"mean_anomaly_deg":267.6743,"bstar":0.00069047,"rev_number":3887,"period_min":94.104609572489,"perigee_km":474.98126854799,"apogee_km":475.37739023183,"semimajor_km":6853.3163293899,"source":"CELESTRAK","updated_at":"2026-05-25T13:38:20.896635Z"}}